Regional Weather Roundup
Issued by NWS

Home | Current Version | Previous Version | Graphics & Text | Print | Product List | Glossary On
Versions: 1 2 3 4 5 6 7 8 9 10 11 12 13 14 15 16 17 18 19 20 21 22 23 24 25 26 27 28 29 30 31 32 33 34 35 36 37 38 39 40 41 42 43 44 45 46 47 48 49 50
000
ASUS43 KOAX 241810
RWRNE

WEATHER ROUNDUP FOR NEBRASKA
NATIONAL WEATHER SERVICE OMAHA NE
100 PM CDT WED AUG 24 2016

NOTES: SATELLITE DATA IS BEING USED TO AUGMENT CLOUD COVER ABOVE
       12000 FEET.
       "FAIR" INDICATES FEW OR NO CLOUDS BELOW 12,000 FEET WITH NO
       SIGNIFICANT WEATHER AND/OR OBSTRUCTIONS TO VISIBILITY.

  * THESE STATIONS DO NOT REPORT WEATHER SUCH AS RAIN...SNOW OR FOG.

NEZ001>004-019>022-054>056-241900-
NEBRASKA PANHANDLE

CITY           SKY/WX    TMP DP  RH WIND       PRES   REMARKS
SCOTTSBLUFF    CLOUDY    68  44  42 E7        30.22F
6HR MIN TEMP:  57; 6HR MAX TEMP:  68;

ALLIANCE       MOSUNNY   67  40  37 VRB7      30.22F
6HR MIN TEMP:  49; 6HR MAX TEMP:  68;

CHADRON        CLOUDY    69  42  37 NE8       30.21F
6HR MIN TEMP:  47; 6HR MAX TEMP:  69;

KIMBALL        MOSUNNY   66  48  52 S14       30.25R
SIDNEY         CLOUDY    67  39  35 E7        30.24F
6HR MIN TEMP:  57; 6HR MAX TEMP:  67; 6HR PCP: TRACE;

$$

NEZ057>060-069>072-079>082-241900-
SOUTHWEST NEBRASKA

CITY           SKY/WX    TMP DP  RH WIND       PRES   REMARKS
NORTH PLATTE   CLOUDY    79  43  27 N13       30.15S
6HR MIN TEMP:  58; 6HR MAX TEMP:  80;

IMPERIAL       CLOUDY    76  36  23 E14       30.19R
6HR MIN TEMP:  59; 6HR MAX TEMP:  76;

LEXINGTON      PTSUNNY   73  48  41 NE5       30.12R
MCCOOK         CLOUDY    74  44  34 NE13      30.12F
6HR MIN TEMP:  59; 6HR MAX TEMP:  76;

OGALLALA       CLOUDY    75  33  21 N10       30.20R
$$

NEZ005>010-023>029-035>040-094-241900-
NORTH CENTRAL NEBRASKA

CITY           SKY/WX    TMP DP  RH WIND       PRES   REMARKS
VALENTINE      CLOUDY    66  45  46 N13       30.17F
6HR MIN TEMP:  48; 6HR MAX TEMP:  67;

AINSWORTH      MOSUNNY   67  50  53 N13       30.17R
BROKEN BOW     CLOUDY    71  48  43 NE8       30.13S
6HR MIN TEMP:  53; 6HR MAX TEMP:  74;

O`NEILL        PTSUNNY   75  47  36 N12       30.13S
ORD            CLOUDY    76  48  37 N9        30.09S
6HR MIN TEMP:  53; 6HR MAX TEMP:  77;

THEDFORD       MOSUNNY   72  47  41 N8        30.19S
$$

NEZ041-046>049-061>064-073>077-083>087-241900-
SOUTH CENTRAL NEBRASKA

CITY           SKY/WX    TMP DP  RH WIND       PRES   REMARKS
GRAND ISLAND   CLOUDY    74  51  44 N10       30.09R
6HR MIN TEMP:  60; 6HR MAX TEMP:  74;

AURORA         CLOUDY    74  55  51 NE7       30.07F
HASTINGS       CLOUDY    71  55  56 NE7       30.08F
6HR MIN TEMP:  61; 6HR MAX TEMP:  72;

HEBRON         CLOUDY    73  67  80 E6        30.03F
HOLDREGE       CLOUDY    65  52  63 NE7       30.09F
KEARNEY *      CLOUDY    66  54  63 N6        30.10R
YORK           PTSUNNY   73  55  53 NE8       30.07R
$$

NEZ011>018-030>034-042>045-241900-
NORTHEAST NEBRASKA

CITY           SKY/WX    TMP DP  RH WIND       PRES   REMARKS
NORFOLK        CLOUDY    71  56  58 N12       30.06F
6HR MIN TEMP:  58; 6HR MAX TEMP:  72;

ALBION         CLOUDY    71  53  54 N13       30.08S
BLAIR          MOSUNNY   79  64  59 N9        30.01F
FREMONT        MOSUNNY   79  56  44 NE9       30.03R
TEKAMAH        MOSUNNY   79  62  56 N8        30.01R
6HR MIN TEMP:  68; 6HR MAX TEMP:  79;

WAYNE          CLOUDY    71  61  70 NW9       30.06S
$$

NEZ050>053-065>068-078-088>093-241900-
SOUTHEAST NEBRASKA

CITY           SKY/WX    TMP DP  RH WIND       PRES   REMARKS
LINCOLN        MOSUNNY   82  60  47 N14       30.03R
6HR MIN TEMP:  68; 6HR MAX TEMP:  82; 6HR PCP: TRACE;

OMAHA EPPLEY   PTSUNNY   82  64  54 NE12      29.99F
6HR MIN TEMP:  69; 6HR MAX TEMP:  82;

BEATRICE       CLOUDY    75  66  74 CALM      30.03S THUNDER
FALLS CITY     CLOUDY    76  70  82 N5        30.00F
6HR MIN TEMP:  66; 6HR MAX TEMP:  76;

NEBRASKA CITY  CLOUDY    75  68  79 CALM      30.02R
PLATTSMOUTH    CLOUDY    77  68  73 E5        30.01S
$$

NEZ044-045-051>053-067-241900-
OMAHA AREA

CITY           SKY/WX    TMP DP  RH WIND       PRES   REMARKS
OMAHA EPPLEY   PTSUNNY   82  64  54 NE12      29.99F
6HR MIN TEMP:  69; 6HR MAX TEMP:  82;

BLAIR          MOSUNNY   79  64  59 N9        30.01F
FREMONT        MOSUNNY   79  56  44 NE9       30.03R
MILLARD        MOSUNNY   81  63  54 NE10      30.00F
OFFUTT AFB     PTSUNNY   79  68  69 NE6       29.99F
PLATTSMOUTH    CLOUDY    77  68  73 E5        30.01S
WAHOO          FAIR      79  61  54 N13       30.02S
$$




USA.gov is the U.S. government's official web portal to all federal, state and local government web resources and services.